[[{"header":{"parameterUnit":"m.s-1","parameterCategory":1,"la1":30.2991,"la2":30.254,"lo1":-89.0895,"lo2":-89.0444,"dy":0.0017,"dx":0.0017,"nx":28,"ny":28,"refTime":"2023-07-30T21:00:00:Z","depth":0,"parameterNumber":2,"parameterNumberName":"U-component_of_WINDS"},"data":[0,0,0,0,0,0,0,0,0,0,0,0,0,0,0,0,0,0,0,0,0,0,0,0,0,0,0,0,0,0,0,0,0,0,0,0,0,0,0,0,0,0,0,0,0,0,0,0,0,0,0,0,0,0,0,0,0,0,-0.2823,-0.2822,0,-0.2723,-0.2722,-0.2721,-0.269,-0.2691,-0.2691,-0.2692,-0.2586,-0.2583,-0.2579,0,0,0,0,0,0,0,0,0,0,0,0,0,-0.2984,-0.2981,-0.2823,-0.2822,-0.282,-0.2724,-0.2722,-0.2721,-0.269,-0.2691,-0.2691,-0.2692,-0.2587,-0.2583,-0.2579,0,0,0,0,0,0,0,0,0,0,0,0,0,-0.2902,-0.2981,-0.2823,-0.2794,-0.279,-0.2724,-0.2722,-0.272,-0.269,-0.2691,-0.2691,-0.2692,-0.2588,-0.2583,-0.2579,-0.2534,0,0,-0.2564,-0.2561,0,0,0,0,0,0,0,0,-0.2907,-0.2896,-0.2799,-0.2795,-0.2791,-0.272,-0.274,-0.2658,-0.269,-0.2728,-0.2692,-0.2692,-0.263,-0.2621,-0.2601,-0.2529,-0.2524,-0.2563,-0.256,-0.2558,-0.2557,0,0,0,0,0,0,0,-0.2913,-0.2901,-0.2783,-0.2798,-0.2793,-0.2785,-0.2774,-0.2724,-0.2676,-0.2725,-0.2722,-0.2711,-0.2628,-0.2606,-0.2598,-0.2523,-0.2563,-0.2559,-0.2556,-0.2554,-0.241,-0.2409,0,0,0,0,0,0,-0.2924,-0.2906,-0.2787,-0.278,-0.2852,-0.2781,-0.2769,-0.2742,-0.2676,-0.2667,-0.271,-0.271,-0.2614,-0.2604,-0.2594,-0.2538,-0.2558,-0.2553,-0.2551,-0.2411,-0.241,-0.2409,0,0,0,0,0,0,-0.2927,-0.2914,-0.2791,-0.2842,-0.2826,-0.2778,-0.2748,-0.274,-0.2718,-0.2666,-0.2656,-0.2697,-0.2614,-0.2601,-0.255,-0.2534,-0.2551,-0.2547,-0.2412,-0.241,-0.2409,-0.2425,0,0,0,0,0,0,-0.2932,-0.2915,-0.2898,-0.2842,-0.2823,-0.2748,-0.2747,-0.2737,-0.271,-0.2708,-0.2651,-0.2642,-0.2614,-0.2557,-0.2545,-0.2528,-0.2543,-0.2413,-0.2411,-0.241,-0.2426,-0.2425,-0.2424,0,0,0,0,0,-0.2938,-0.2905,-0.2897,-0.2883,-0.2801,-0.2747,-0.2736,-0.2706,-0.2709,-0.2691,-0.2658,-0.2644,-0.2538,-0.2552,-0.2538,-0.2519,-0.2414,-0.2412,-0.241,-0.2426,-0.2425,-0.2424,0,0,0,0,0,0,-0.2959,-0.2897,-0.2888,-0.2836,-0.2797,-0.2742,-0.2719,-0.2705,-0.2663,-0.2663,-0.2626,-0.2613,-0.2565,-0.2536,-0.2553,-0.2473,-0.2475,-0.247,-0.2493,-0.2491,-0.249,-0.2497,-0.2539,0,0,0,0,0,-0.2958,-0.292,-0.2868,-0.2827,-0.2809,-0.2767,-0.2743,-0.2723,-0.268,-0.2663,-0.2626,-0.2585,-0.2543,-0.2515,-0.2473,-0.2422,-0.2409,-0.2402,-0.2401,-0.2401,-0.2397,-0.2368,-0.2365,-0.2402,-0.2402,-0.2402,0,0,-0.2954,-0.2916,-0.2894,-0.2831,-0.2798,-0.276,-0.2753,-0.2712,-0.2683,-0.2657,-0.2606,-0.2578,-0.2529,-0.2478,-0.2453,-0.2453,-0.2384,-0.2398,-0.2398,-0.2394,-0.2366,-0.2363,-0.2359,-0.2401,-0.2401,-0.2401,0,0,-0.2928,-0.2895,-0.2859,-0.2827,-0.2779,-0.2752,-0.2743,-0.269,-0.2671,-0.262,-0.26,-0.2564,-0.2492,-0.2459,-0.2432,-0.2396,-0.2382,-0.2383,-0.2377,-0.235,-0.2347,-0.2345,-0.2332,-0.2328,-0.238,-0.238,-0.238,0,-0.2929,-0.2871,-0.2841,-0.2802,-0.2775,-0.2751,-0.2713,-0.2683,-0.2624,-0.2605,-0.2606,-0.2516,-0.2482,-0.2423,-0.2415,-0.2394,-0.2383,-0.2389,-0.2351,-0.2347,-0.2344,-0.2332,-0.2327,-0.238,-0.238,-0.238,-0.238,0,-0.2876,-0.2836,-0.2812,-0.2757,-0.2727,-0.2688,-0.2652,-0.2625,-0.2608,-0.2581,-0.253,-0.2489,-0.2438,-0.2423,-0.2405,-0.2362,-0.2364,-0.2358,-0.236,-0.2342,-0.233,-0.2325,-0.2381,-0.2381,-0.2381,-0.2381,0,0,-0.2859,-0.2789,-0.278,-0.2756,-0.2702,-0.267,-0.2631,-0.2583,-0.2561,-0.2521,-0.2487,-0.2428,-0.2423,-0.2393,-0.2372,-0.2348,-0.2323,-0.2345,-0.2344,-0.2343,-0.2274,-0.2278,-0.2274,-0.2314,-0.2313,-0.2312,-0.2278,0,-0.2826,-0.2756,-0.2729,-0.2672,-0.2635,-0.2612,-0.2578,-0.2542,-0.2516,-0.248,-0.2451,-0.241,-0.2406,-0.2388,-0.2364,-0.2332,-0.2309,-0.2334,-0.2282,-0.228,-0.2294,-0.2267,-0.2271,-0.2241,-0.2273,-0.2272,-0.2272,0,-0.2778,-0.274,-0.268,-0.2632,-0.2615,-0.2585,-0.254,-0.2506,-0.2464,-0.2447,-0.2415,-0.2396,-0.2354,-0.2359,-0.23,-0.2318,-0.2295,-0.2276,-0.2275,-0.2268,-0.2275,-0.226,-0.223,-0.2226,-0.2264,-0.2264,-0.2265,0,-0.2773,-0.2705,-0.2661,-0.264,-0.2583,-0.2563,-0.2538,-0.2496,-0.247,-0.2431,-0.2413,-0.2369,-0.2345,-0.2311,-0.228,-0.2286,-0.2225,-0.2227,-0.2209,-0.221,-0.2196,-0.2197,-0.2163,-0.2182,-0.2182,-0.2182,-0.2182,0,-0.2739,-0.2703,-0.2658,-0.2631,-0.259,-0.2559,-0.2519,-0.2492,-0.2456,-0.2423,-0.2401,-0.237,-0.2331,-0.2296,-0.2271,-0.2227,-0.2216,-0.2201,-0.2194,-0.2202,-0.2204,-0.2187,-0.2188,-0.2181,-0.2181,-0.2181,-0.2182,0,-0.2725,-0.2694,-0.2644,-0.2595,-0.2581,-0.2554,-0.2511,-0.2483,-0.2457,-0.2416,-0.2404,-0.2363,-0.232,-0.2286,-0.2229,-0.2213,-0.2166,-0.2159,-0.2181,-0.2178,-0.2162,-0.2164,-0.2114,-0.2106,-0.2131,-0.2131,-0.2131,0,-0.2706,-0.2678,-0.2626,-0.2603,-0.2579,-0.2542,-0.2515,-0.2484,-0.2457,-0.2408,-0.2387,-0.2343,-0.2306,-0.2238,-0.2202,-0.2159,-0.2151,-0.2137,-0.2144,-0.2154,-0.2151,-0.2153,-0.215,-0.2136,-0.2136,-0.2136,-0.2135,0,-0.2675,-0.2661,-0.2625,-0.2583,-0.2553,-0.2518,-0.2482,-0.2465,-0.2427,-0.2398,-0.2355,-0.2326,-0.227,-0.2226,-0.218,-0.2153,-0.2138,-0.2134,-0.2127,-0.2135,-0.2149,-0.2142,-0.2179,-0.2135,-0.2135,-0.2135,-0.2135,-0.2135,-0.2658,-0.2633,-0.2593,-0.2553,-0.2524,-0.2492,-0.2464,-0.2435,-0.2399,-0.2351,-0.2335,-0.229,-0.225,-0.2186,-0.216,-0.2124,-0.2123,-0.2114,-0.2111,-0.2109,-0.2111,-0.2155,-0.2116,-0.2115,-0.2115,-0.2115,-0.2115,0,-0.2627,-0.26,-0.2564,-0.2516,-0.2485,-0.2475,-0.2436,-0.241,-0.2372,-0.2336,-0.2301,-0.2251,-0.221,-0.2172,-0.2128,-0.2107,-0.2099,-0.2096,-0.2097,-0.2092,-0.2114,-0.2124,-0.2104,-0.2104,-0.2104,-0.2104,-0.2104,-0.2104,-0.2606,-0.2563,-0.2545,-0.2487,-0.2461,-0.2418,-0.2397,-0.2367,-0.2339,-0.2285,-0.2251,-0.2227,-0.219,-0.2144,-0.2105,-0.2095,-0.208,-0.2079,-0.2067,-0.2088,-0.209,-0.2092,-0.2101,-0.2076,-0.2076,-0.2048,-0.2048,-0.2048]},{"header":{"parameterUnit":"m.s-1","parameterCategory":1,"la1":30.2991,"la2":30.254,"lo1":-89.0895,"lo2":-89.0444,"dy":0.0017,"dx":0.0017,"nx":28,"ny":28,"refTime":"2023-07-30T21:00:00:Z","depth":0,"parameterNumber":3,"parameterNumberName":"V-component_of_WINDS"},"data":[0,0,0,0,0,0,0,0,0,0,0,0,0,0,0,0,0,0,0,0,0,0,0,0,0,0,0,0,0,0,0,0,0,0,0,0,0,0,0,0,0,0,0,0,0,0,0,0,0,0,0,0,0,0,0,0,0,0,3.3398,3.3398,0,3.3384,3.3384,3.3384,3.3381,3.3381,3.3381,3.3381,3.3365,3.3365,3.3364,0,0,0,0,0,0,0,0,0,0,0,0,0,3.342,3.342,3.3398,3.3398,3.3398,3.3384,3.3384,3.3384,3.3381,3.3381,3.3381,3.3381,3.3365,3.3365,3.3364,0,0,0,0,0,0,0,0,0,0,0,0,0,3.3409,3.342,3.3398,3.3395,3.3394,3.3384,3.3384,3.3384,3.3381,3.3381,3.3381,3.3381,3.3366,3.3365,3.3364,3.3356,0,0,3.3362,3.3361,0,0,0,0,0,0,0,0,3.3409,3.3408,3.3395,3.3395,3.3394,3.3384,3.3386,3.3374,3.3381,3.3386,3.3381,3.3381,3.3371,3.337,3.3367,3.3355,3.3355,3.3362,3.3361,3.3361,3.3361,0,0,0,0,0,0,0,3.341,3.3409,3.3393,3.3395,3.3395,3.3393,3.3392,3.3384,3.3378,3.3385,3.3385,3.3384,3.3371,3.3368,3.3367,3.3354,3.3362,3.3361,3.3361,3.336,3.3333,3.3333,0,0,0,0,0,0,3.3412,3.3409,3.3393,3.3392,3.3403,3.3393,3.3391,3.3387,3.3378,3.3377,3.3384,3.3384,3.3369,3.3368,3.3366,3.3355,3.3361,3.336,3.336,3.3334,3.3333,3.3333,0,0,0,0,0,0,3.3412,3.3411,3.3394,3.3401,3.3398,3.3392,3.3388,3.3387,3.3384,3.3377,3.3375,3.3381,3.3369,3.3367,3.3358,3.3354,3.336,3.3359,3.3334,3.3334,3.3333,3.3333,0,0,0,0,0,0,3.3413,3.3411,3.3408,3.3401,3.3398,3.3387,3.3388,3.3387,3.3383,3.3383,3.3374,3.3373,3.3369,3.3359,3.3358,3.3354,3.3358,3.3334,3.3334,3.3333,3.3334,3.3333,3.3333,0,0,0,0,0,3.3414,3.3409,3.3408,3.3406,3.3395,3.3386,3.3385,3.3381,3.3382,3.3379,3.3374,3.3373,3.3355,3.3359,3.3356,3.3352,3.3334,3.3334,3.3333,3.3334,3.3333,3.3333,0,0,0,0,0,0,3.3416,3.3408,3.3407,3.3399,3.3394,3.3386,3.3382,3.3381,3.3374,3.3374,3.3369,3.3368,3.3359,3.3354,3.3358,3.3343,3.3345,3.3344,3.3346,3.3345,3.3345,3.3346,3.3358,0,0,0,0,0,3.3415,3.341,3.3403,3.3397,3.3394,3.3389,3.3385,3.3382,3.3376,3.3373,3.3368,3.3361,3.3354,3.3349,3.3343,3.3333,3.333,3.3329,3.3328,3.3328,3.3327,3.332,3.3319,3.3331,3.3331,3.3331,0,0,3.3414,3.3409,3.3406,3.3397,3.3392,3.3386,3.3387,3.338,3.3375,3.3372,3.3363,3.3359,3.3351,3.3342,3.3337,3.3338,3.3323,3.3327,3.3327,3.3326,3.3319,3.3318,3.3317,3.3331,3.3331,3.3331,0,0,3.3409,3.3405,3.3399,3.3394,3.3387,3.3384,3.3382,3.3374,3.3371,3.3363,3.336,3.3353,3.3341,3.3336,3.3331,3.3322,3.3321,3.332,3.3317,3.3311,3.331,3.3309,3.3305,3.3303,3.3319,3.3319,3.3319,0,3.3409,3.34,3.3396,3.339,3.3385,3.3383,3.3376,3.3371,3.3362,3.3359,3.336,3.3344,3.3338,3.3327,3.3324,3.3321,3.3318,3.3321,3.331,3.3309,3.3308,3.3304,3.3303,3.3319,3.3319,3.3319,3.3319,0,3.3399,3.3393,3.3389,3.338,3.3375,3.3368,3.3363,3.3358,3.3356,3.3352,3.3342,3.3335,3.3326,3.3323,3.3321,3.3311,3.3311,3.3311,3.3313,3.3307,3.3303,3.3302,3.3319,3.3319,3.3319,3.3319,0,0,3.3396,3.3384,3.3383,3.3378,3.337,3.3364,3.3357,3.3348,3.3344,3.3337,3.333,3.332,3.3319,3.3314,3.3311,3.3305,3.3297,3.3306,3.3305,3.3304,3.3284,3.3284,3.3282,3.3296,3.3296,3.3296,3.3285,0,3.3389,3.3377,3.3372,3.3362,3.3355,3.3352,3.3345,3.3339,3.3334,3.3327,3.3322,3.3314,3.3315,3.3311,3.3306,3.33,3.3293,3.33,3.3288,3.3288,3.329,3.3281,3.328,3.327,3.3283,3.3283,3.3283,0,3.338,3.3373,3.3362,3.3353,3.335,3.3344,3.3335,3.3329,3.3321,3.3318,3.3311,3.3308,3.3299,3.3302,3.3288,3.3293,3.3288,3.3284,3.3284,3.3282,3.3285,3.3278,3.3267,3.3266,3.3281,3.3281,3.3281,0,3.3377,3.3365,3.3357,3.3353,3.3343,3.3339,3.3334,3.3326,3.3321,3.3313,3.3309,3.33,3.3295,3.3287,3.3281,3.3284,3.3268,3.327,3.3264,3.3264,3.3261,3.3261,3.3249,3.3259,3.3259,3.3259,3.3259,0,3.337,3.3363,3.3355,3.335,3.3341,3.3336,3.3328,3.3323,3.3316,3.3308,3.3305,3.3298,3.3291,3.3283,3.3278,3.3267,3.3265,3.3261,3.326,3.3261,3.3261,3.3257,3.3258,3.3258,3.3258,3.3258,3.3259,0,3.3366,3.3361,3.3351,3.3342,3.3339,3.3333,3.3325,3.3319,3.3314,3.3305,3.3302,3.3294,3.3284,3.3277,3.3264,3.3261,3.3249,3.3248,3.3252,3.3251,3.3245,3.3245,3.3229,3.3226,3.3239,3.3238,3.3238,0,3.3362,3.3356,3.3346,3.3341,3.3337,3.3329,3.3324,3.3318,3.3312,3.3301,3.3296,3.3286,3.3278,3.3262,3.3254,3.3244,3.3242,3.3237,3.324,3.3241,3.3241,3.3241,3.324,3.3236,3.3236,3.3236,3.3236,0,3.3355,3.3352,3.3345,3.3336,3.3329,3.3322,3.3314,3.331,3.3303,3.3296,3.3286,3.328,3.3266,3.3255,3.3244,3.3238,3.3235,3.3235,3.3233,3.3234,3.3236,3.3234,3.3249,3.3235,3.3235,3.3236,3.3236,3.3236,3.335,3.3344,3.3336,3.3327,3.3321,3.3314,3.3308,3.3301,3.3293,3.3282,3.3279,3.3268,3.3258,3.3243,3.3237,3.3227,3.3228,3.3225,3.3224,3.3223,3.3223,3.3238,3.3225,3.3225,3.3225,3.3225,3.3225,0,3.3342,3.3336,3.3328,3.3318,3.331,3.3309,3.33,3.3294,3.3284,3.3276,3.3268,3.3255,3.3244,3.3235,3.3224,3.3218,3.3216,3.3215,3.3215,3.3213,3.3223,3.3226,3.3217,3.3217,3.3217,3.3217,3.3217,3.3217,3.3337,3.3327,3.3323,3.3309,3.3303,3.3293,3.3288,3.3281,3.3274,3.326,3.3251,3.3246,3.3236,3.3224,3.3214,3.3211,3.3207,3.3206,3.3203,3.3212,3.3213,3.3214,3.3216,3.3205,3.3205,3.3193,3.3193,3.3193]}]]